[閒聊] 大谷翔平目前一些MLB前三的打擊數據

看板 Baseball
作者
時間
留言 187則留言,149人參與討論
推噓 134 ( 137推 3噓 47→ )
https://www.mlb.com/stats/2021 就列一些個人覺得可能比較會提到的 剛發現BR的OPS+更新了 補上 HR 大谷翔平 37 V.Guerrero 32 F.Tatis 31(國聯) RBI R.Devers 82 大谷翔平 81 V.Guerrero 80 SLG 大谷翔平 0.691 V.Guerrero 0.656 F.Tatis 0.652(國聯) OPS V.Guerrero 1.080 大谷翔平 1.058 F.Tatis 1.027(國聯) OPS+(BR) V.Guerrero 189 F.Tatis 182(國聯) 大谷翔平 176 TB 大谷翔平 237 V.Guerrero 233 R.Devers 217 盜壘是MLB並列第15(美聯並列第8) --
※ 發信站: 批踢踢實業坊(ptt.cc), 來自: 36.227.97.179 (臺灣) ※ 文章網址: https://www.ptt.cc/bbs/Baseball/M.1627536616.A.FF1.html
1Fapple83709: 投手不務正業 07/29 13:31
2Fvow70: 球速160的投手在各項打擊項目都名列前矛,真是現代神人 07/29 13:32
3Fi376ers: 甲子園打擊排行榜 07/29 13:33
4FYanrei: 你說這是…投手? 07/29 13:34
5Fe2167471: 笑死扯到歪頭 07/29 13:34
6Fmikamitomoya: 難.....打頭 07/29 13:34
7Fmhtvpz: 哪天球隊會議學Z魔播自己尻HR的影片:多打一點不然我自己來 07/29 13:35
8Fooo79113: MVP無懸念了 07/29 13:35
9Faa091811004: ……不知道的可能會覺得是在開玩笑 07/29 13:35
10Ff9968106: 笑死,AVG不到三成 07/29 13:36
11Faa091811004: 有夠可怕 07/29 13:36
12Fwenshin: 沒想到打點已經追上來了,之前覺得差很多 07/29 13:37
13Fghost069: 要拼打點全壘打雙冠王嗎 07/29 13:37
14Foliverchamps: 小V葛已經越來越沒籌碼比拚了 07/29 13:37
15Fjsstarlight: 五體投地啊 07/29 13:38
16Fpounil: isop也第一 WAR也第一 HR/AB 9.2 也第一 07/29 13:39
17Fshushu4ni: 這個數據以後要怎麼超越... 07/29 13:39
18Fusadream: 可以維持到季末一定MVP 07/29 13:40
19Fpounil: AB/HR 07/29 13:40
20Fsleeeve: 小V葛感覺有點自暴自棄了 最近都打的普普 07/29 13:40
21Fsleeeve: 真的是被支配的恐懼 07/29 13:40
22Fchaobii: 可惜不是現在選MVP,不然根本毫無懸念 07/29 13:41
23Fyankees733: 小V葛注定第二了 07/29 13:41
24FIsveia: 一個投手的打擊數據長這樣除了變態外,也沒其他的形容詞可 07/29 13:41
25Fjeff1013: 小V葛單純就狀況沒這麼火而已 自暴自棄啥= = 07/29 13:41
26Ffd263fd263: 他光打者成績就足以競爭MVP,更別說還有投球,真的是 07/29 13:42
27Ffd263fd263: 不知道怎麼輸 07/29 13:42
28FIsveia: 以形容了。 07/29 13:42
29Fziggyzzz: OPS沒有10 笑死 07/29 13:42
30Fyftsai: 笑死,怎麼不敢寫打擊率 07/29 13:42
31Fjiaxie: 還有61場,大家繼續看下去! 07/29 13:42
32FRicFlair: 笑死 投手在那洗什麼榜 07/29 13:42
33FLSLLtu: 笑死,投手妄想用打擊拿年度MVP 07/29 13:42
34Fissuxark: 笑死沒有333 07/29 13:44
35Fcfk301: 鱒魚avg也沒三成照樣mvp阿!他還不會投球勒~ 07/29 13:44
36FIsveia: 鱒魚可以投球啦,只是投出來的成績你不會想談而已XD 07/29 13:45
37Fnakayamayyt: 笑死 全隊打擊最強的是投手 全隊球速最快的是DH 07/29 13:45
38Fsppray: 自暴自棄是怎樣?那我要看到小V血流成河,國文很重要啊! 07/29 13:45
39Fycsheaven: 投手洗打擊排行榜..... 07/29 13:46
40Fgtgra053789: 應該全票MVP了 07/29 13:47
41Flmf770410: 對了大谷在隊上的ERA 不算Eaton也是全隊最低 因為牛棚 07/29 13:48
42Flmf770410: 各個廢到笑 07/29 13:48
43FNowQmmmmmmmm: 都給你玩就好了啊! 07/29 13:49
44FShoTime17: 現在的Pace可以打59發左右,讓我們繼續看下去 07/29 13:49
45FKcarpenter: 現在目標是史上最佳單一賽季成績 不只MVP了 維持這進 07/29 13:50
46FKcarpenter: 度任何一年都會是MVP 07/29 13:50
47FZhouGongJin: 像大谷這樣每場都在寫歷史的表現還不是MVP,那MVP這獎 07/29 13:51
48FZhouGongJin: 項大概可以廢了 07/29 13:51
49Fchng8371: 然後未來的打擊類的獎項都要跟這位投手比較 07/29 13:51
50Fneo19: 根本不是人類XD 07/29 13:52
51Floser30cm: 也許有另類333 300k(k人+被k) 30轟 3勝投 07/29 13:52
52FphyBomber: 你跟我說這是era3出頭的投手 07/29 13:53
53Fcatsondbs: 國帝美V 小V又比小帝更穩 07/29 13:53
54FYanrei: 未來的其他人都要被拿來跟投手比打擊了QQ 07/29 13:54
55FZhouGongJin: 唯一不給大谷MVP的理由只剩這獎是給人類不是外星人 07/29 13:55
56Fa5687920: 可以提早進名人堂了 07/29 13:55
57Fasdfg5435: 笑死 沒10勝 07/29 13:57
58Fplauge: 覺得MLB會新設一個獎給大谷 現有獎項不足以彰顯他的偉大 07/29 13:58
59Fchu: babe是不是過譽了? 07/29 13:58
60Floser30cm: 也許天使該用逆先發 這樣搞不好先發更容易拿勝投 07/29 13:59
61Flookers: 史上最佳單一賽季成績 這句好 07/29 13:59
62FYehpin2823: 笑死 漫畫男主角都沒有那麼扯 07/29 13:59
63Fybuc: 如果勝投也前三,就真的是在看漫畫了。但我真得想看漫畫 :) 07/29 14:01
64Fmikilin23: 現在的表現就是史上單季投打最佳成績 07/29 14:02
65Frevolution3: 沒受傷最重要 07/29 14:02
66Fezlifee1140: 笑死 投手洗什麽打擊數據 07/29 14:02
67Fghiting76914: 欸不是 你投手 搞錯排行榜了吧 07/29 14:04
68FEnsidia: 身為一個曾經的谷酸 真的是被他的表現征服了 太強了 07/29 14:04
69Fedhuang: 笑死 長打數領先蠻多的 07/29 14:04
70Fultratimes: 光打擊的成績不可能MVP 史上並沒有拿MVP的DH 07/29 14:04
71Feddy12357: 投手只是副業了吧 07/29 14:04
72Fsanadayasu: 投手這個數據也太慘...咦 是打擊? 07/29 14:06
73Fmikazeray: 真是太可怕了 07/29 14:08
74FClutchShot: 笑死 投手還要打擊 真是勞工之恥 有種罷工啊 07/29 14:12
75Fdihy880000: 玩遊戲都沒那麼扯 07/29 14:15
76Fsttarmbcb390: ops也不相上下 幾乎沒差 不是投手都可能能拿mvp了.. 07/29 14:15
77Fsttarmbcb390: 不是投手不能算dh吧 大谷有守備能力 不當投手可守備 07/29 14:17
78Fgod2: 如果維持到季末,他有資格設立大谷獎 07/29 14:19
79Fgod2: 只是二刀流的人那麼少,以後頒出去會是笑話 07/29 14:20
80Fgod2: 期待未來二刀流變多 07/29 14:20
81Flookers: 只有十五個名額可以二刀流 然後投手要多準備一個 有點難 07/29 14:22
82Fmose56789: 自暴自棄啥== 所以大谷之前低潮也是自暴自棄嗎 07/29 14:22
83Fmikilin23: 等大谷退休後開二刀流學校 07/29 14:23
84Fscott8257: 榜上都是高中選手吧? 07/29 14:23
85Fsustainer123: 二刀流沒得教吧 百年出一個 有生之年希望能看到 07/29 14:24
86Fsustainer123: 下一個 07/29 14:24
87Fhenrylee0410: 大谷獎 07/29 14:24
88Fmikilin23: 左拿黑風劍右拿白龍劍 07/29 14:24
89Fjoewang85: 笑死 這是什麼鬼扯數據 07/29 14:29
90Fjohnnyvcxz40: 自暴自棄是什麼東西 我以為OPS第一打的很爛 07/29 14:30
91Fsq61372py: 笑死,投手只能拿打者數據出來嘴 07/29 14:30
92FSatoman: 笑死,你跟我講這投手 07/29 14:31
93Fmarunouchi: 今年有辦法20勝嗎 07/29 14:32
94Fxxgogg: 12121vs23212 07/29 14:34
95Fss59418ss: 人名後面加守備位置會笑死 07/29 14:35
96Fhdjj: #投手 07/29 14:36
97FCoffeewater: 10轟50勝 超越貝比魯斯的二刀流 07/29 14:37
98Fchogosu: 全壘打王偶爾投一下球 07/29 14:37
99Ftsaumond: 大谷之前近代棒球沒有前例,有些人可能有潛力但被勸退 07/29 14:38
100Ftakenostand: 史上沒有DH拿MVP,但是也沒有投手拿全壘打王 07/29 14:39
101Ftsaumond: 也許在大谷之後會有更多人開始嚐試二刀流 07/29 14:39
102Fatxp4869: 長打率0.691!!!!!!!! 07/29 14:39
103Fdiiky: 還蠻猛的... 07/29 14:40
104Fedhuang: 有啦 魯斯二刀那兩年都是全壘打王 07/29 14:41
105Flon0623: 他打DH也是為了保留體力,不然他能守外野的 07/29 14:43
106Filove88th: 10 勝 50 轟吧 !!?? 07/29 14:44
107Ffg008kimo: 投手打這樣?? MLB真的變甲子園了 07/29 14:49
108FKyameron: 小葛完全PTSD了 不自量力的後果 07/29 14:50
109Fwondada: 只希望可以健康打完整季,一定是MVP XDD 07/29 14:51
110FDerp: 不覺得未來十年可以看到另一個這麼壓制的雙刀 把大聯盟當學 07/29 14:51
111FDerp: 生棒球? 07/29 14:51
112Fyaya861003: 某樓50勝10轟快笑死 07/29 14:52
113FGABA: 一壘安打成績不佳 下方3A磨練 07/29 14:53
114Fccf0423: 希望健康打完整季+1,大谷來MLB還沒健康整季二刀流過,即使 07/29 14:54
115Fccf0423: 在日職也只有兩季(14和16)完整二刀流成功 07/29 14:55
116FGABA: P被37HR 慘爆 喔……看反了 07/29 14:55
117Flouis0724: 笑死投手不好拿MVP肖想用打擊拿 07/29 14:56
118FsmallGY: 老實說他比較像打者兼差投手 打擊亮眼太多 07/29 15:02
119Flookers: 投球才是最愛 打擊是不小心就打出去 07/29 15:08
120Fray1478953: 大谷投球也不錯呀 主要單局爆7分把era噴高 現在才回 07/29 15:09
121Fray1478953: 到3 07/29 15:09
122Fggerger: 兩場一轟 劍指六十 07/29 15:09
123Fluna2000sea: 真的不可思議 07/29 15:12
124Fstonerr: 如果大谷沒當投手的話,可以守右外野加打擊,這種打擊成 07/29 15:17
125Fstonerr: 績也可拿mvp 07/29 15:17
126Fstocktonty: 笑死這什麼業餘聯盟 讓投手洗榜 07/29 15:20
127Ffishfish1314: MVP 07/29 15:31
128Fmackulkov: 甲子園啊 07/29 15:45
129Fmackulkov: 第四棒1號投手 07/29 15:45
130Fcoolrock: 鬼 07/29 15:49
131Fnyyjeter8: 笑死 有種來當投手阿 只會打 07/29 15:50
※ 編輯: MrSatan (36.227.97.179 臺灣), 07/29/2021 15:57:40
132Fmikilin23: 各位觀眾!!!!!!最新大谷BWAR是7..... 07/29 15:57
133Fshn790404: *投手 07/29 15:57
134Fmoaice: 棒球漫畫已經不知道要怎麼畫,才能比這更唬爛了 07/29 15:57
135FWanYC: 笑死 鬼 以為在看高中聯賽的數據 07/29 15:58
136FDawei1165: 我就問 07/29 15:58
137Faimgel: 這不給MVP要給誰? 07/29 15:59
138FBaRanKa: MLB真的被亞洲高中生當高中校際盃賽在打的實例 07/29 16:00
139Fdeadknightvi: 投手才是副業吧 07/29 16:03
140FHelloFumi: 笑死 打擊率不到三成還敢秀 07/29 16:05
141Fmarty7976: 全壘打打點雙冠王,守備位置:投手 07/29 16:10
142Flookers: WAR多2.1 MVP你可以投別人啊 你投啊 07/29 16:10
143Fdieyoung: 現在宣布退休也有名人堂 07/29 16:13
144Fairflow: 狠太! 無路賽! 07/29 16:20
145Fkasim0607: 笑死 這什麼漫畫數據 07/29 16:20
146Fjickey: 笑死 不加投手的成績就想拿MVP喔 07/29 16:51
147Fmikilin23: 然後美聯7月打擊MVP大谷又有機會拿了目前坐二望一 07/29 16:53
148FWasJohnWall: 現在已經變成能抗先發的打者了 07/29 16:54
149Fmikilin23: 大概是大谷跟紅襪Rafael Devers爭奪7月MVP 07/29 16:54
150Fmikilin23: 7月剩3場 07/29 16:54
151Fwenhuanorman: 小V不會投,又沒有贏多少,高中生MVP根本無懸念 07/29 16:58
152Fhasroten: 笑死 不務正業的投手 你到是上投手排行榜阿 07/29 17:07
153Fdominchn: war有沒有破紀錄啊? 07/29 17:08
154FStrasburg: 其實他不是甲子園英雄 當年他就讀的花卷東在岩手縣地 07/29 17:08
155FStrasburg: 方大會就敗退了 07/29 17:08
156FNobita: 現在MVP賠率多少了 07/29 17:12
157Faseric852466: 笑死 原來宰制大聯盟很簡單嘛 07/29 17:21
158FEloye: 切就是個和製巨砲而已…嗄這是P甲???? 07/29 17:24
159Fhuohuai: 高中生聯盟 07/29 17:37
160Fqazthlin: 說投手兼差的,有想過他已經是Ace 07/29 17:40
161Fck30929: WAR很難 棒球之神有過14WAR 07/29 17:41
162Fck30929: 如果投打相加在死球年代還有到20的 07/29 17:42
163Fcmelo1515: 太強了... 07/29 17:49
164FInmostInmo: 笑死 靠投手刷成績 07/29 17:53
165Fdog990999: 說個笑話這人是投手 07/29 17:59
166Fproprome: 有投手成績排名嗎 07/29 17:59
167Fyitsu: 禁止投手用打擊成績入選MVP 07/29 18:10
168Fja000123: 這聯盟真弱 投手都能拿全壘打王 (疑 07/29 18:11
169Fbada: MLB大谷元年 07/29 18:25
170FHelloFumi: 笑死 不就打者狂投100+mph 投手暫居全壘打王 偶爾盜 07/29 18:27
171FHelloFumi: 盜壘 07/29 18:27
172Fwx190: 錢不是問題 真的是打興趣的 07/29 18:38
173Fbarton50195: 不務正業 07/29 18:41
174Fkcl0801: 我的看法同上面Hello大 MLB一百多年來都誤會了大家應該看 07/29 18:47
175Fkcl0801: 的數據 投手投的好是應該的本來就要比全壘打啊 07/29 18:47
176Ffoxclimber: 絕對是有史以來打擊最強的先發投手 07/29 18:57
177Fmightymouse: 大谷有進春甲啊,被藤浪的大阪桐蔭打爆 07/29 19:07
178Fpennyhsieh: 真的從沒想過大谷能在MLB掀起這麼大的波瀾 07/29 19:16
179Fhydra7: 投手跑去洗野手的榜,笑死 07/29 19:32
180Fkei1823: 盜壘是三小... 07/29 20:04
181Fken720331: MVP不用想了...DH還可以當投手,投手防禦價值還最大 07/29 20:28
182Fblastillocal: 外星人轉生成高中生在異世界打棒球 07/29 20:31
183Fchuuu030: 我就問 07/29 22:11
184Fnoway: 笑死 拿勝投王的訣竅是打擊競爭對手(物理) 07/29 22:39
185Fppphil: 漫畫畫成這樣一定覺得超唬爛,什麼!?這是現實!? 07/30 00:18
186Fnick32408: 因為都直接打hr很難拼盜壘成績 07/30 00:40
187Fyoyo095235: 守備位置:投手 07/30 04:57

Baseball 看板熱門文章

35
165
186
404
78
102
115
309

最新文章